Location: Quaker Farms
(41.4276°N, 73.1557°W)
Time: 00:38:31
(UTC+00:00)

Altair - Pass Details

Date: 17 June 2021
Orbit: 1501 x 1682 km, 47.2° (Epoch: 23 July)

Event Time Altitude Azimuth Distance (km) Brightness Sun altitude
Rises 20:28:53 0° 264° (W) 4,721 10.9 42.0°
Reaches altitude 10° 20:31:57 10° 267° (W) 3,761 10.7 41.4°
Maximum altitude 20:41:29 66° 349° (N) 1,736 8.5 39.7°
Drops below altitude 10° 20:51:26 10° 72° (ENE) 3,904 9.3 37.8°
Sets 20:54:41 0° 75° (ENE) 4,909 9.7 37.2°
